Lid_Strength_Index
-1 -1 -1 -1 -1 -1 -1 -1 -1 -1 -1 -1 -1 -1 -1 -2 -0 -0 -1 -0 -1 -1 -1 -1 -1 -1 -1 -1 -2 -2 -2 -2 -1
-1 -1 -1 -1 -1 -1 -1 -1 -1 -1 -1 -1 -1 -1 -2 -0 -0 -0 -0 -0 -1 -1 -1 -1 -1 -1 -1 -1 -2 -1 -1 -1 -1
-1 -1 -1 -1 -1 -1 -1 -1 -1 -1 -1 -1 -1 -1 -2 -1 0 -0 -0 -1 -1 -1 -1 -1 -1 -1 -1 -1 -1 -1 -1 -1 -1
-1 -1 -1 -1 -1 -1 -1 -1 -1 -1 -1 -1 -1 -1 -2 -0 0 -1 -0 -2 -1 -1 -1 -1 -1 -1 -1 -1 -1 -1 -1 -1 -1
-1 -1 -1 -1 -1 -1 -1 -1 -1 -1 -1 -1 -1 -1 -2 0 1 0 -0 -2 -1 -1 -1 -1 -1 -1 -1 -1 -1 -1 -1 -1 -1
-0 -1 -1 -1 -1 -1 -1 -1 -1 -1 -1 -1 -1 -1 0 0 1 -0 -2 -2 -2 -1 -1 -1 -1 -1 -1 -1 -1 -2 -1 -1 -1
0 -1 -2 -2 -1 -1 -1 -1 -1 -1 1 1 -1 0 1 0 1 1 -2 -2 -1 -1 -1 -1 -1 -1 -1 -1 -1 -2 -2 -2 -1
0 2 1 1 -1 1 -0 0 1 1 1 0 -0 0 1 1 1 -0 -3 -2 -2 -2 -1 -1 -1 -1 -1 -1 -1 -2 -2 -2 -2
1 1 0 2 2 2 3 2 1 1 2 4 4 2 2 1 1 -0 -2 -2 -2 -2 -2 -2 -1 -1 -1 -1 -1 -1 -2 -2 -2
2 1 0 0 0 1 3 4 5 5 4 5 5 6 6 5 1 -0 -1 -2 -2 -2 -2 -2 -2 -2 -1 -1 -1 -1 -1 -2 -2
3 3 1 1 0 1 1 2 3 4 6 7 6 7 8 8 6 0 -0 -1 -2 -2 -2 -2 -2 -2 -2 -1 -1 -1 -1 -1 -2
7 6 3 1 -0 1 1 1 1 2 4 6 7 8 8 8 8 0 1 -0 -1 -2 -2 -2 -2 -2 -2 -2 -2 -1 -1 -1 -1
8 7 7 6 2 1 1 1 2 2 2 3 5 7 8 8 8 7 0 1 0 -1 -2 -2 -2 -2 -2 -2 -2 -2 -1 -1 -1
8 8 7 7 7 5 1 1 2 2 1 1 2 2 6 6 6 8 6 2 1 0 -1 -2 -2 -2 -2 -2 -2 -2 -2 -2 -1
8 8 8 7 7 7 6 4 2 2 2 1 1 2 1 4 7 8 8 5 3 3 2 0 -0 -2 -2 -2 -2 -2 -2 -2 -2
8 8 8 8 8 8 7 7 6 4 3 4 4 2 1 2 3 6 8 7 6 5 3 2 2 1 -2 -2 -2 -2 -2 -2 -2
8 8 8 8 8 8 8 8 8 6 4 5 5 6 5 3 3 3 5 6 5 5 5 3 3 4 3 2 -2 -2 -2 -2 -2
8 9 9 9 9 9 8 8 8 8 7 4 5 7 8 6 4 4 3 5 6 4 4 5 4 4 4 2 1 -1 -2 -2 -2
8 8 8 8 8 8 8 6 8 8 8 7 2 4 4 6 7 4 3 2 4 7 5 5 5 4 5 3 2 0 -1 -2 -2
8 7 8 8 8 8 8 8 8 8 9 8 8 5 4 4 5 6 5 3 3 3 5 6 4 4 4 4 2 0 0 -1 -2